Regional Weather Roundup
Issued by NWS

Home | Current Version | Previous Version | Text Only | Print | Product List | Glossary On
Versions: 1 2 3 4 5 6 7 8 9 10 11 12 13 14 15 16 17 18 19 20 21 22 23 24 25 26 27 28 29 30 31 32 33 34 35 36 37 38 39 40 41 42 43 44 45 46 47 48 49 50
612
ASHW40 PHFO 102332
RWRHI

WEATHER ROUNDUP FOR HAWAII
NATIONAL WEATHER SERVICE HONOLULU HI
100 PM HST SAT DEC 10 2016

THIS IS AN AUTOMATED REPORT THAT HAS NOT BEEN QUALITY CONTROLLED.

NOTE..."FAIR" INDICATES FEW OR NO CLOUDS BELOW 12,000 FEET WITH NO
SIGNIFICANT WEATHER AND/OR OBSTRUCTIONS TO VISIBILITY.

* - THESE SITES REPORT LIMITED FIELDS

HIZ001>004-110000-
KAUAI-NIIHAU-

CITY           SKY/WX    TMP DP  RH WIND       PRES   REMARKS
LIHUE APT      PTSUNNY   78  70  76 S8        29.94F
PORT ALLEN*      N/A     81 N/A N/A S8          N/A
POIPU*           N/A     81 N/A N/A S3G10       N/A
PRINCEVILLE*   NOT AVBL
KOKOLE POINT*  NOT AVBL
MOLOAA DAIRY*    N/A     75  72  88 E3G9        N/A
WAIMEA HTS*    NOT AVBL
PUU OPAE*      NOT AVBL
PUU LUA*       NOT AVBL
MAKAHA RIDGE*    N/A     75  68  78 W2G8        N/A
$$

HIZ005>011-110000-
OAHU-

CITY           SKY/WX    TMP DP  RH WIND       PRES   REMARKS
HONOLULU       PTSUNNY   76  69  79 SE16      29.95F
KALAELOA       PTSUNNY   78  70  76 SE8       29.96F
KANEOHE MCB    MOSUNNY   78  71  79 SE9       29.91
WHEELER FIELD  FAIR      75  72  88 S10       29.95F
BELLOWS*         N/A    N/A N/A N/A SE5         N/A
KAHUKU*          N/A    N/A N/A N/A NE5         N/A
WHEELER*       NOT AVBL
WAIANAE HARBOR NOT AVBL
DILLINGHAM*      N/A     64  48  55 MISG        N/A
KAHUKU TRN*      N/A     68  61  77 NW2G12      N/A
KAWAILOA*        N/A     79  66  65 SW3G9       N/A
KII*             N/A     79  72  78 E12         N/A
MAKUA RANGE*     N/A     82  68  61 E6G14       N/A
OAHU FOREST NW NOT AVBL
SCHOFIELD BRK*   N/A     73  68  83 MISG        N/A
SCHOFIELD S*   NOT AVBL
WAIANAE VLY*   NOT AVBL
KUAOKALA*      NOT AVBL
HONOULIUULI*   NOT AVBL
MOKUOLOE IS*   NOT AVBL
PALEHUA*       NOT AVBL
WAIAWA PHB*    NOT AVBL
$$

HIZ012>013-110000-
MOLOKAI-

CITY           SKY/WX    TMP DP  RH WIND       PRES   REMARKS
MOLOKAI AIRPT  PTSUNNY   73  70  88 SE8       29.97F
KALAUPAPA      NOT AVBL
MAKAPULAPAI*     N/A     72  70  94 E5G12       N/A
MOLOKAI 1*     NOT AVBL
PUU ALII*        N/A     60  60 100 SE3G12      N/A
$$

HIZ016-110000-
KAHOOLAWE-

CITY           SKY/WX    TMP DP  RH WIND       PRES   REMARKS
KAHOOLAWE*     NOT AVBL
HAKIOAWA*        N/A     68  68  99 MISG      30.38
HONOKANAIA*      N/A     70  67  92 NW9G17    29.92F
KANELOA*         N/A     68  66  94 N12G18    30.03F
KEALIALALO*    NOT AVBL
LUA MAKIKA*    NOT AVBL
$$

HIZ014>015-110000-
LANAI-

CITY           SKY/WX    TMP DP  RH WIND       PRES   REMARKS
LANAI CITY     LGT RAIN  66  65  96 SE9       30.01F
LANAI 1*       NOT AVBL
$$

HIZ017>028-110000-
MAUI-

CITY           SKY/WX    TMP DP  RH WIND       PRES   REMARKS
KAHULUI        LGT RAIN  72  68  87 CALM      29.97F
KAPALUA-W MAUI LGT RAIN  70  68  94 CALM      29.98
HANA AIRPORT   LGT RAIN  72  68  88 NW3       29.98F
HANA*            N/A     73 N/A N/A W6          N/A
HALEAKALA SUMM   N/A     43  43 100 SE7G30      N/A
MAALAEA BAY*     N/A     72 N/A N/A E1          N/A
HALEAKALA*     NOT AVBL
KAUPO GAP*     NOT AVBL
KULA 1*          N/A     53  52  96 SE14G24     N/A
$$

HIZ023>026-110000-
BIG ISLAND OF HAWAII COAST AND LOWER SLOPES-

CITY           SKY/WX    TMP DP  RH WIND       PRES   REMARKS
KAILUA KONA    CLOUDY    76  69  79 N15       29.93F
HILO           LGT RAIN  76  70  82 CALM      29.95F
HONOKAA*         N/A     73 N/A N/A VRB1        N/A
KAWAIHAE MWT*    N/A     75 N/A N/A S3          N/A
KAWAIHAE*        N/A     75 N/A N/A S3        29.95F
SOUTH POINT*     N/A     72 N/A N/A N9          N/A
UPOLU AIRPORT* NOT AVBL
KAMUELA*       PTCLDY    66  64  94 E5        30.04F
HAKALAU*         N/A     58  53  83 S3          N/A
KALOKO-HONOKO*   N/A     77  68  73 NW10G16   29.92F
PALI 2*          N/A     64  64 100 NE2G8       N/A
KEALAKOMO*       N/A     75  70  83 W7          N/A
KAUPULEHU*     NOT AVBL
KAPAPALA*      NOT AVBL
LOWER KAHUKU*    N/A     66  61  82 NE2G8       N/A
PUHE CS*         N/A     75  66  73 S1          N/A
PUHO CS*         N/A     79  68  69 W2          N/A
PTA KEAMUKU*     N/A     64  63  94 CALM        N/A
WAIKOLOA*      NOT AVBL
$$

HIZ027>028-110000-
BIG ISLAND OF HAWAII INTERIOR AND SUMMMITS-

CITY           SKY/WX    TMP DP  RH WIND       PRES   REMARKS
BRADSHAW FIELD PTSUNNY   57  55  94 W5        30.26S
MK VISITOR CEN   N/A     48  45  87 S6          N/A
MAUNA KEA*       N/A     32  30  93 SW25        N/A  WCI  19
MAUNA LOA*       N/A     43  41  93 MISG        N/A
MAUNA LOA 1*   NOT AVBL
PTA KIPUKA*      N/A     64  61  88 SW6         N/A
PTA RANGE 17*    N/A     57  55  94 SW5G12      N/A
PTA WEST*        N/A     68  64  88 NW1G8       N/A
NENE CABIN*      N/A     55  48  76 SE2G8       N/A
AHUMOA*        NOT AVBL
PTA PORTABLE*  NOT AVBL
PUU MALI*        N/A     55  54  94 NE6         N/A
$$

HIC003-110000-
NORTHWEST ISLANDS-

CITY           SKY/WX    TMP DP  RH WIND       PRES   REMARKS
MIDWAY ISLAND  SUNNY     75  63  64 NE8       30.06S
MIDWAY NOS*      N/A     73 N/A N/A MISG      30.03F
FRENCH FRIGATE NOT AVBL
$$

PHZ110>124-180-110000-
BUOY REPORTS

STATION/POSITION TIME  TEMP    WIND        PRES    WAVE   SWELL
                       AIR SEA DIR/SP/G            HT/PER HT/DIR
                 (UTC) (F)     (DEG/KT/KT) (MB)    (FT/S) (FT/D)
BUOY 51001       2310   76 78  240/  6/ 10 1012.6
BUOY 51101       2250   76 78  220/  8/ 12 1013.6F   8/11   8/ 10
BUOY 51100       NOT AVBL
BUOY 51002       2310   78 79  160/ 10/ 12 1012.5
BUOY 51003       2250   76 80   80/  6/  8 1013.3F   5/12   5/350
BUOY 51004       2250   76 79  120/ 12/ 14 1013.9F   5/ 8   5/100
BARBERS PT BUOY  NOT AVBL
WAIMEA BAY BUOY  2302      77                N/A     5/12   3/340
KAILUA BAY BUOY  2304      78                N/A     5/12   3/ 20
LANAI BUOY       2245      78                N/A     2/12   2/280
BARBERS PT 2     2309      78                N/A     3/11   2/290
PAUWELA MAUI     2309      76                N/A     4/ 8   2/350
HILO             2312      77                N/A     6/ 8   2/ 10
KANEOHE BAY BUOY 2306      77                N/A     5/12   3/ 10
HANALEI KAUAI    2252      79                N/A     5/11   3/350
KAHULUI HARBOR   2300   71 78  170/  2/  2 1014.6
HONOLULU HARBOR  2300   76 78  120/  5/  8 1014.7
KILO NALU        NOT AVBL
HILO HARBOR      2300   75 76  260/  3/  3 1013.7
MOKUOLOE         2236   80 77  150/  2/  6 1014.2F
NAWILIWILI       2300   76 78  150/  5/ 10 1013.6
WHOTS BUOY       NOT AVBL
BUOY 51028       NOT AVBL
$$

......................KEY........................................
  SKY/WX - SKY CONDITIONS/PRESENT WEATHER
  TMP    - TEMPERATURE IN FAHRENHEIT
  DWPT   - DEWPOINT IN FAHRENHEIT
  RH     - RELATIVE HUMIDITY IN PERCENT
  WIND   - DIRECTION AND SPEED /MPH FOR ISLANDS...KTS FOR BUOYS/
  PRES   - MEAN SEA LEVEL PRESSURE IN INCHES OF HG
  VSB    - VISIBILITY IN MILES
  HX     - HEAT INDEX
  WCI    - WIND CHILL INDEX
  VRB    - VARIABLE WIND DIRECTION
  N/A    - NOT AVAILABLE




USA.gov is the U.S. government's official web portal to all federal, state and local government web resources and services.